Regional Weather Roundup
Issued by NWS

Home | Current Version | Previous Version | Graphics & Text | Print | Product List | Glossary Off
Versions: 1 2 3 4 5 6 7 8 9 10 11 12 13 14 15 16 17 18 19 20 21 22 23 24 25 26 27 28 29 30 31 32 33 34 35 36 37 38 39 40 41 42 43 44 45 46 47 48 49 50

000
ASUS43 KFSD 230302
RWRSD

WEATHER ROUNDUP FOR SOUTH DAKOTA
NATIONAL WEATHER SERVICE SIOUX FALLS SD
900 PM CST SAT NOV 22 2014

NOTE: "FAIR" INDICATES FEW OR NO CLOUDS BELOW 12,000 FEET WITH NO
SIGNIFICANT WEATHER AND/OR OBSTRUCTIONS TO VISIBILITY.


SDZ001>005-009-010-012>017-230400-
NORTHWEST AND NORTH CENTRAL SOUTH DAKOTA

CITY           SKY/WX    TMP DP  RH WIND       PRES   REMARKS
BUFFALO          N/A     42  34  73 W22G31    29.37R
FAITH            N/A     41  29  62 E7        29.40S
MOBRIDGE       CLOUDY    36  31  82 SE7       29.34F
$$

SDZ012>016-024>037-041>051-057-063-072>074-230400-
SOUTHWEST AND SOUTH CENTRAL SOUTH DAKOTA

CITY           SKY/WX    TMP DP  RH WIND       PRES   REMARKS
RAPID CTY ARPT CLOUDY    43  30  60 E5        29.42S
PIERRE         CLOUDY    39  31  72 S3        29.40F
CUSTER         PTCLDY    37  30  75 W14G21    29.45S
ELLSWORTH AFB  CLOUDY    41  31  67 SE2       29.41S
PHILIP         CLOUDY    39  30  70 NW3       29.41S
PINE RIDGE     CLOUDY    39  31  72 SW5       29.46F
WINNER         CLOUDY    50  31  48 CALM      29.45R
$$

SDZ004>011-016>023-039-040-230400-
NORTHEAST SOUTH DAKOTA

CITY           SKY/WX    TMP DP  RH WIND       PRES   REMARKS
ABERDEEN       CLOUDY    32  29  88 S7        29.38F WCI  26
WATERTOWN      MOCLDY    35  32  88 S8        29.40F WCI  29
SISSETON         N/A     31  31 100 SE12      29.38F WCI  22
$$

SDZ017-020-022-023-036>040-048>070-230400-
SOUTHEAST SOUTH DAKOTA

CITY           SKY/WX    TMP DP  RH WIND       PRES   REMARKS
SIOUX FALLS    CLOUDY    41  37  86 S14       29.46S
HURON          CLOUDY    38  32  79 SW5       29.41S
CHAMBERLAIN    CLOUDY    38  31  77 SW3       29.43S
MITCHELL       CLOUDY    46  34  62 SW7       29.44F
YANKTON        CLOUDY    50  37  62 S16G25    29.46F
$$

ABBREVIATIONS USED IN REMARKS
   TC - TEMPERATURE IN CELSIUS
  WCI - WIND CHILL INDEX
   HX - HEAT INDEX
  VSB - VISIBILITY




USA.gov is the U.S. government's official web portal to all federal, state and local government web resources and services.